Location: Table Mountain
(47.2500°N, 120.5778°W)
Time: 04:08:19
(UTC-08:00)

OTV 5 (USA 277) - Pass Details

Date: 15 October 2017
Orbit: 404 x 417 km, 43.0° (Epoch: 07 September)

Event Time Altitude Azimuth Distance (km) Brightness Sun altitude
Rises 20:25:01 0° 264° (W) 2,350 ? -22.9°
Reaches altitude 10° 20:27:12 10° 256° (WSW) 1,487 ? -23.3°
Enters shadow 20:29:15 28° 229° (SW) 812 ? -23.6°
